Regional Weather Roundup
Issued by NWS

Home | Current Version | Previous Version | Graphics & Text | Print | Product List | Glossary On
Versions: 1 2 3 4 5 6 7 8 9 10 11 12 13 14 15 16 17 18 19 20 21 22 23 24 25 26 27 28 29 30 31 32 33 34 35 36 37 38 39 40 41 42 43 44 45 46 47 48 49 50
000
ASUS43 KDMX 221207
RWRIA

WEATHER ROUNDUP FOR IOWA
NATIONAL WEATHER SERVICE DES MOINES IA
700 AM CDT FRI AUG 22 2014

NOTE: "FAIR" INDICATES FEW OR NO CLOUDS BELOW 12,000 FEET WITH NO
SIGNIFICANT WEATHER AND/OR OBSTRUCTIONS TO VISIBILITY.

* - THESE STATIONS ARE NOT NWS STATIONS...THUS NOT UNDER NWS
QUALITY CONTROL.  THEY ALSO DO NOT REPORT WEATHER SUCH
AS PRECIPITATION OR FOG.

IAZ001>003-012>014-020>022-031>034-043>046-221300-
   NORTHWEST IOWA

CITY           SKY/WX    TMP DP  RH WIND       PRES   REMARKS
CARROLL *      CLEAR     70  70 100 CALM      29.91R
CHEROKEE *     CLEAR     70  70 100 N3        29.90S
DENISON *      CLEAR     72  72 100 CALM      29.90R FOG
LE MARS *      CLEAR     66  66 100 CALM      29.92R FOG
ORANGE CITY *  CLEAR     73  66  78 CALM      29.92S
SHELDON *      CLEAR     64  64 100 N6        29.91S FOG
SIOUX CITY     CLEAR     73  70  90 N5        29.89F
6HR MIN TEMP:  73; 6HR MAX TEMP:  78;

SPENCER        CLEAR     65  64  97 N3        29.92R FOG
6HR MIN TEMP:  65; 6HR MAX TEMP:  71;

STORM LAKE *   FOG       72  72 100 N6        29.92R VSB 3/4
$$

IAZ055>058-069>071-079>083-090>094-221300-
   SOUTHWEST IOWA

CITY           SKY/WX    TMP DP  RH WIND       PRES   REMARKS
ATLANTIC *     CLEAR     70  68  94 CALM      29.91R
AUDUBON *      CLEAR     73  70  88 CALM      29.93R
CLARINDA *     CLEAR     72  72 100 CALM      29.92R
COUNCIL BLFS * CLEAR     70  70 100 CALM      29.89S
CRESTON *      CLEAR     72  70  94 S8        29.92R
HARLAN  *      CLEAR     70  70 100 CALM      29.95R
LAMONI         MOCLDY    74  70  87 SE8       29.93S
6HR MIN TEMP:  73; 6HR MAX TEMP:  81; 6HR PCP: TRACE;

RED OAK *      PTCLDY    70  70 100 CALM      29.90R
SHENANDOAH *   CLEAR     72  72 100 CALM      29.90R
$$

IAZ047>049-059>061-072>074-084-221300-
   CENTRAL IOWA

CITY           SKY/WX    TMP DP  RH WIND       PRES   REMARKS
AMES           CLOUDY    70  70 100 CALM      29.90R
6HR MIN TEMP:  70; 6HR MAX TEMP:  77; 6HR PCP:  0.02;

ANKENY *       CLOUDY    72  72 100 CALM      29.91R
CHARITON *     MOCLDY    73  73 100 S10G16    29.91R
DES MOINES     CLOUDY    73  69  87 N5        29.89R
6HR MIN TEMP:  73; 6HR MAX TEMP:  81; 6HR PCP:  0.05;

GRINNELL*      CLOUDY    72  70  94 S7        29.93R
KNOXVILLE *    MOCLDY    73  70  88 S9        29.90R
MARSHALLTOWN   CLOUDY    72  72 100 SW8       29.90R FOG
6HR MIN TEMP:  72; 6HR MAX TEMP:  76; 6HR PCP: TRACE;

PELLA *        CLOUDY    73  71  95 CALM      29.93R
PERRY *          N/A     70  70 100 W3        29.90R
$$

IAZ004>006-015-016-023>025-035-036-221300-
   NORTH CENTRAL IOWA

CITY           SKY/WX    TMP DP  RH WIND       PRES   REMARKS
ALGONA *       FOG       70  70 100 CALM      29.92R VSB 1/4
CLARION *      MOCLDY    73  73 100 N5        29.89S
ESTHERVILLE    FOG       68  68 100 N5        29.92R VSB<1/4
6HR MIN TEMP:  64; 6HR MAX TEMP:  68;

FORT DODGE *   MOCLDY    72  72 100 CALM      29.90R
MASON CITY     FOG       70  70 100 N5        29.91S VSB 1
6HR MIN TEMP:  68; 6HR MAX TEMP:  73;

FOREST CITY *  FOG       70  70 100 CALM      29.91R VSB 1/4
IOWA FALLS *     N/A     71  70  96 CALM      29.91R FOG
$$

IAZ007>011-017>019-026>030-037>042-050>054-066-221300-
   NORTHEAST IOWA

CITY           SKY/WX    TMP DP  RH WIND       PRES   REMARKS
CEDAR RAPIDS   LGT RAIN  73  73 100 CALM      29.89R FOG
6HR MIN TEMP:  72; 6HR MAX TEMP:  74; 6HR PCP: TRACE;

CHARLES CITY * FOG       70  70 100 CALM      29.90S VSB 0
CLINTON *      CLOUDY    73  72  94 SE3       29.94R
DECORAH *      FOG       70  70 100 CALM      29.90R VSB 0
DUBUQUE        CLOUDY    72  72 100 SE5       29.93R
6HR MIN TEMP:  70; 6HR MAX TEMP:  72;

MONTICELLO *   FOG       72  72 100 CALM      29.89S VSB 0
OELWEIN *      FOG       70  70 100 SE5       29.91R VSB 1/4
WATERLOO       CLOUDY    72  71  97 SE3       29.88R FOG
6HR MIN TEMP:  69; 6HR MAX TEMP:  74;

$$

IAZ064-065-067-068-078-221300-
   EAST CENTRAL IOWA

CITY           SKY/WX    TMP DP  RH WIND       PRES   REMARKS
DAVENPORT      CLOUDY    75  73  93 S5        29.91R
6HR MIN TEMP:  72; 6HR MAX TEMP:  76; 6HR PCP:  0.14;

IOWA CITY      TSTM      75  75 100 S7        29.90R
6HR MIN TEMP:  72; 6HR MAX TEMP:  76; 6HR PCP: TRACE;

MT. PLEASANT * RAIN      75  73  94 SW3       29.95R
MUSCATINE *    PTCLDY    77  73  88 SW8       29.90R
QUAD CITIES    CLOUDY    78  73  84 W6        29.90R HX  81
6HR MIN TEMP:  73; 6HR MAX TEMP:  78;

$$

IAZ062-063-075>077-085>089-095>099-221300-
   SOUTHEAST IOWA

CITY           SKY/WX    TMP DP  RH WIND       PRES   REMARKS
BURLINGTON     LGT RAIN  75  74  96 W7        29.91F
6HR MIN TEMP:  75; 6HR MAX TEMP:  78; 6HR PCP:  0.41;

FAIRFIELD *    LGT RAIN  73  70  88 VRB5      29.94R
FORT MADISON * LGT RAIN  75  75 100 SW3       29.96R
KEOKUK *       LGT RAIN  77  73  88 NW7       29.95R
OSKALOOSA *      N/A     73  71  93 NE6       29.92R
CENTERVILLE *  CLEAR     72  72 100 S6        29.94F
OTTUMWA        CLOUDY    74  69  85 S5        29.90R
6HR MIN TEMP:  74; 6HR MAX TEMP:  80; 6HR PCP: TRACE;

WASHINGTON *   LGT RAIN  75  75 100 SW15      29.94R
$$

ABBREVIATIONS USED IN REMARKS
   TC - TEMPERATURES IN CELSIUS
  WCI - WIND CHILL INDEX
   HX - HEAT INDEX
  VSB - VISIBILITY
$$



USA.gov is the U.S. government's official web portal to all federal, state and local government web resources and services.